Location: ???????
(55.4362°N, 38.1183°E)
Time: 13:20:35
(UTC+00:00)

Oscar 11 - Pass Details

Date: 10 December 2021
Orbit: 611 x 625 km, 97.6° (Epoch: 25 January)

Event Time Altitude Azimuth Distance (km) Brightness Sun altitude
Rises 14:22:24 0° 184° (S) 2,901 10.9 -11.0°
Reaches altitude 10° 14:24:41 10° 192° (SSW) 1,999 10.2 -11.3°
Maximum altitude 14:28:48 41° 263° (W) 917 8.6 -11.8°
Drops below altitude 10° 14:32:58 10° 334° (NNW) 2,013 9.7 -12.3°
Sets 14:35:17 0° 342° (NNW) 2,924 10.5 -12.6°
